Location: Peebles
(55.6412°N, 3.1714°W)
Time: 14:52:30
(UTC+01:00)

Cosmos 2082 - Pass Details

Date: 26 September 2021
Orbit: 835 x 854 km, 71.0° (Epoch: 17 October)

Event Time Altitude Azimuth Distance (km) Brightness Sun altitude
Rises 22:04:50 0° 324° (NW) 3,415 8.1 -25.1°
Reaches altitude 10° 22:07:23 10° 330° (NNW) 2,473 7.0 -25.3°
Maximum altitude 22:12:54 50° 46° (NE) 1,061 4.1 -25.9°
Enters shadow 22:13:18 49° 60° (ENE) 1,073 4.0 -26.0°
